User: anonymous   Login
Location: Fountain Hills
(33.6120°N, 111.7170°W)
Time: 03:17:52
(UTC-07:00)
Language:

Hamsat - Orbit

View from above orbital plane
View from above orbital plane
View from above satellite
View from above satellite

Ground track
Ground track

The orbit data is extracted from the following two-line orbital elements,

1 28650U 05017B   15028.12809502  .00001572  00000-0  18176-3 0  9673
2 28650 097.5678 027.0682 0025878 133.1537 227.1849 14.86664481526636
Epoch (UTC): 28 January 2015 03:04:27
Eccentricity: 0.0025878
inclination: 97.5678°
perigee height: 590 km
apogee height: 626 km
right ascension of ascending node: 27.0682°
argument of perigee: 133.1537°
revolutions per day: 14.86664481
mean anomaly at epoch: 227.1849°
orbit number at epoch: 52663

The dashed part of the orbit path shows where the satellite is in the earth's shadow,  

DLR